Flag for U.S.A. Weather past 2 weeks in Midland, Texas, U.S.A.

Now
79 °F

Clear.


Feels Like: 81 °F
Forecast: 69 / 90 °F
Wind: 12 mph from South

Location: Midland - Midland Airpark

Current Time: Jul 2, 2015 at 12:43:33 AM

Latest Report: Jul 1, 2015 at 11:15 PM


Visibility: 10 mi

Pressure: 30.03 "Hg

Humidity: 61%

Dew point: 64 °F

Location of MidlandLocation

Historic Weather in Midland — Graph

°F

Midland temperature yesterday

Maximum temperature yesterday: 90 °F (at 5:55 PM)
Minimum temperature yesterday: 70 °F (at 6:35 AM)
Average temperature yesterday: 80 °F

Past Weeks' High & Low Weather Summary

 TemperatureHumidityPressure
High97 °F (Jun 26, 5:15 PM)100% (Jun 17, 6:55 AM)30.23 "Hg (Jun 17, 6:55 AM)
Low64 °F (Jun 30, 4:15 AM)22% (Jun 28, 5:55 PM)29.94 "Hg (Jun 17, 6:55 PM)
Average81 °F56%30.09 "Hg
* Reported Jun 17 4:55 AM — Jul 1 11:15 PM, Midland, Weather by CustomWeather, © 2015

Note: Actual official high and low records may vary slightly from our data, if they occured in-between our weather recording intervals... More about our weather records

Advertising

Midland weather history for previous 24 hours

 ConditionsComfort  
Time TempWeatherWind HumidityBarometerVisibility
11:15 PM
Wed, Jul 1
79 °FClear.12 mph61%30.03 "Hg10 mi
10:55 PM80 °FClear.10 mph58%30.02 "Hg10 mi
10:15 PM81 °FClear.10 mph54%30.01 "Hg10 mi
9:55 PM82 °FSunny.9 mph52%30.00 "Hg10 mi
9:35 PM82 °FSunny.13 mph50%30.00 "Hg10 mi
9:15 PM83 °FSunny.15 mph49%30.00 "Hg10 mi
8:55 PM84 °FSunny.14 mph48%30.00 "Hg10 mi
8:35 PM85 °FSunny.14 mph45%30.00 "Hg10 mi
8:15 PM86 °FSunny.17 mph43%30.00 "Hg10 mi
7:55 PM87 °FSunny.15 mph42%30.00 "Hg10 mi
7:35 PM88 °FSunny.14 mph39%29.99 "Hg10 mi
7:15 PM89 °FSunny.13 mph36%29.99 "Hg10 mi
6:55 PM90 °FSunny.14 mph35%29.99 "Hg10 mi
6:35 PM90 °FSunny.13 mph35%29.99 "Hg10 mi
6:15 PM90 °FSunny.13 mph34%29.99 "Hg10 mi
5:55 PM90 °FSunny.13 mph35%30.00 "Hg10 mi
4:55 PM90 °FSunny.14 mph38%30.01 "Hg10 mi
4:15 PM90 °FSunny.16 mph38%30.01 "Hg10 mi
3:55 PM90 °FSunny.15 mph39%30.02 "Hg10 mi
3:35 PM90 °FSunny.13 mph39%30.03 "Hg10 mi
3:15 PM89 °FSunny.13 mph40%30.03 "Hg10 mi
2:55 PM89 °FSunny.14 mph42%30.03 "Hg10 mi
2:35 PM88 °FSunny.13 mph43%30.04 "Hg10 mi
2:15 PM87 °FSunny.15 mph45%30.05 "Hg10 mi
1:55 PM86 °FSunny.13 mph47%30.06 "Hg10 mi
1:35 PM86 °FSunny.12 mph49%30.07 "Hg10 mi
1:15 PM84 °FScattered clouds.14 mph53%30.07 "Hg10 mi
12:55 PM84 °FScattered clouds.12 mph54%30.08 "Hg10 mi
12:15 PM82 °FScattered clouds.10 mph58%30.08 "Hg10 mi
11:55 AM81 °FScattered clouds.12 mph59%30.08 "Hg10 mi
11:35 AM81 °FScattered clouds.10 mph60%30.09 "Hg10 mi
11:15 AM80 °FScattered clouds.13 mph62%30.09 "Hg10 mi
10:55 AM80 °FScattered clouds.12 mph63%30.09 "Hg10 mi
10:35 AM79 °FScattered clouds.12 mph64%30.09 "Hg10 mi
10:15 AM78 °FPartly sunny.12 mph66%30.10 "Hg10 mi
9:55 AM76 °FPartly sunny.9 mph70%30.10 "Hg10 mi
9:35 AM76 °FOvercast.13 mph70%30.10 "Hg10 mi
9:15 AM74 °FOvercast.14 mph75%30.10 "Hg10 mi
8:55 AM73 °FOvercast.12 mph77%30.10 "Hg10 mi
8:35 AM72 °FOvercast.13 mph79%30.10 "Hg10 mi
8:15 AM72 °FOvercast.9 mph81%30.09 "Hg10 mi
7:55 AM71 °FLow clouds.14 mph85%30.10 "Hg10 mi
7:35 AM71 °FLow clouds.15 mph86%30.10 "Hg10 mi
7:15 AM71 °FPassing clouds.10 mph88%30.09 "Hg10 mi
6:55 AM70 °FClear.5 mph89%30.09 "Hg10 mi
6:35 AM70 °FClear.5 mph88%30.09 "Hg10 mi
6:15 AM70 °FClear.5 mph88%30.08 "Hg10 mi
5:55 AM71 °FClear.6 mph86%30.08 "Hg10 mi
5:15 AM71 °FClear.5 mph87%30.08 "Hg10 mi
4:55 AM71 °FClear.5 mph86%30.08 "Hg10 mi
4:35 AM72 °FClear.6 mph85%30.08 "Hg10 mi
4:15 AM72 °FClear.9 mph85%30.07 "Hg10 mi
3:55 AM72 °FClear.9 mph84%30.07 "Hg10 mi
3:35 AM73 °FClear.7 mph85%30.08 "Hg10 mi
3:15 AM73 °FClear.6 mph84%30.08 "Hg10 mi
2:55 AM74 °FClear.7 mph83%30.09 "Hg10 mi
2:15 AM74 °FClear.6 mph81%30.08 "Hg10 mi
1:55 AM74 °FClear.7 mph80%30.08 "Hg10 mi
1:35 AM75 °FClear.8 mph78%30.08 "Hg10 mi
1:15 AM75 °FClear.9 mph77%30.09 "Hg10 mi
12:55 AM76 °FClear.9 mph75%30.08 "Hg10 mi
12:15 AM77 °FClear.13 mph68%30.08 "Hg10 mi
Weather by CustomWeather, © 2015

See weather overviewHow to use our weather pages